Temp
17 18 18 18 18 17 17 17 17 16 16 16 15 15 15 15 15 15 15 15 14 14 14 14 14 14 14 13 13 13 13 13 13 13 13 13 13 13 12 12 12 12 12 12 12 11 11 12 11 11 11 11 11 11 11 11 12 12 11 11 11 11 10
18 18 18 18 18 18 18 17 17 17 16 16 16 15 15 15 15 15 15 15 15 14 14 14 14 14 14 14 13 13 13 13 13 13 13 13 13 13 13 13 12 12 12 12 12 12 11 12 12 11 11 11 11 11 11 11 12 12 12 11 11 11 11
18 18 18 18 18 18 18 18 17 17 17 16 16 16 15 15 15 15 15 15 15 15 14 14 14 14 14 14 14 14 13 13 13 13 13 13 13 13 13 13 13 13 12 12 12 12 12 12 12 12 11 11 11 11 11 11 12 12 12 11 11 11 11
18 18 18 18 18 18 18 18 18 17 17 17 17 16 16 15 15 15 15 15 15 15 15 14 14 14 14 14 14 14 14 14 14 13 13 13 13 13 13 13 13 13 13 12 12 12 12 12 12 12 12 11 11 11 11 11 12 12 12 12 11 11 11
18 18 18 18 18 18 18 18 18 18 18 17 17 17 16 16 15 15 15 15 15 15 15 14 14 14 14 14 14 14 14 14 14 14 14 14 13 13 13 13 13 13 13 13 12 12 12 12 12 12 12 12 11 11 11 12 12 12 12 12 12 11 11
18 18 18 18 19 19 19 19 19 19 18 18 17 17 16 16 16 15 15 15 15 15 15 15 14 14 14 14 14 14 14 14 14 14 14 14 14 14 14 13 13 13 13 13 13 13 12 12 12 12 12 12 12 11 11 12 12 12 12 12 12 12 11
19 19 19 19 19 19 19 19 19 19 18 18 18 17 17 16 16 16 15 15 15 15 15 15 15 15 15 15 14 14 14 14 14 14 14 14 14 14 14 14 14 13 13 13 13 13 13 13 13 12 12 12 12 12 12 12 12 12 12 12 12 12 12
19 19 19 19 19 19 19 19 19 19 19 18 18 18 17 17 16 16 16 16 15 15 15 15 15 15 15 15 15 15 14 14 14 14 14 14 14 14 14 14 14 14 13 13 13 13 13 13 13 13 12 12 12 12 12 12 12 12 12 12 12 12 12
18 19 19 19 19 19 19 19 19 19 19 19 18 18 18 17 17 17 16 16 16 15 15 15 15 15 15 15 15 15 14 14 14 14 14 14 14 14 14 14 14 14 14 13 13 13 13 13 13 13 13 12 12 13 12 12 12 12 13 13 12 12 12
18 18 19 18 19 19 19 19 19 19 19 19 19 18 18 18 18 17 17 16 16 16 16 15 15 15 15 15 15 14 14 14 14 14 14 14 14 14 14 14 14 14 14 13 13 13 13 13 13 13 13 13 12 13 13 13 12 12 13 13 13 12 12
18 18 18 18 18 18 19 19 19 19 19 19 19 19 18 18 18 18 17 17 17 16 16 16 16 16 15 15 15 15 14 14 14 14 14 14 14 14 14 14 14 14 14 14 13 13 13 13 13 13 13 13 13 13 13 13 13 13 13 13 13 12 12
18 18 18 18 18 18 18 18 19 19 19 19 19 19 19 19 18 18 18 17 17 17 16 16 16 16 16 15 15 15 15 15 14 14 14 14 14 14 14 14 14 14 14 14 13 13 13 13 13 13 13 13 13 13 13 13 13 13 13 13 13 13 12
18 18 18 18 18 18 18 18 18 19 19 19 19 19 19 19 18 18 18 18 17 17 16 16 16 16 16 16 15 15 15 15 15 15 14 14 14 14 14 14 14 14 14 14 14 13 14 14 14 13 13 13 13 13 13 13 13 13 13 13 13 13 12
17 18 18 18 18 18 18 18 18 18 19 19 19 19 19 19 19 19 18 18 18 17 17 16 16 16 16 16 16 16 15 15 15 15 15 14 14 14 14 14 14 14 14 14 14 14 14 14 14 13 13 13 13 13 13 13 13 13 13 13 13 13 13
17 17 18 18 18 18 18 18 18 18 19 19 19 19 19 19 19 19 19 19 18 17 17 17 17 16 16 16 16 16 16 15 15 15 15 15 15 14 14 14 14 14 15 15 15 14 14 14 14 14 13 13 13 13 13 13 13 14 14 14 13 13 13
17 17 17 18 18 18 18 18 18 18 19 19 19 19 19 19 19 19 19 19 18 18 17 17 17 17 16 16 17 16 16 16 16 15 15 15 15 15 15 14 14 15 15 15 15 15 15 15 15 14 14 14 14 13 13 14 14 14 14 14 14 13 13
17 17 17 17 18 17 17 18 18 18 18 18 19 19 19 19 19 19 19 19 19 18 18 17 17 17 17 17 17 16 16 16 16 16 16 15 15 15 15 14 14 15 15 15 16 15 15 15 15 15 15 14 14 14 14 14 14 14 14 14 14 14 13
17 16 17 17 17 17 17 17 18 18 18 18 19 19 19 19 19 19 19 19 19 18 18 17 17 17 17 17 17 16 16 16 16 16 16 16 16 15 15 15 15 15 15 15 15 16 15 15 15 15 15 15 14 14 14 14 14 14 14 14 14 14 13
17 17 17 17 17 17 17 17 17 18 18 18 18 19 19 19 19 19 19 19 19 18 18 18 17 17 17 17 17 17 17 17 16 16 16 16 16 15 15 15 15 15 15 15 15 15 15 15 15 15 15 15 15 15 15 15 15 15 14 14 14 14 14
16 17 17 17 17 17 17 17 17 18 18 18 18 18 19 19 19 19 19 19 19 18 18 18 18 17 17 17 17 17 17 17 16 16 16 16 16 16 15 15 15 15 15 15 15 15 15 15 15 15 15 15 15 15 15 16 15 15 15 14 14 14 14
16 16 17 17 17 17 17 17 17 18 18 18 18 18 19 19 19 19 19 19 19 19 19 18 18 18 18 18 17 17 17 17 17 16 16 16 16 16 16 16 15 15 15 15 15 15 15 15 15 15 15 15 15 16 16 16 16 15 15 15 14 14 14
16 16 17 17 17 17 17 17 18 18 18 18 18 18 18 19 19 19 19 19 19 19 19 18 18 18 18 18 18 17 17 17 17 17 17 16 16 16 16 16 16 16 15 15 15 15 15 15 15 15 15 15 15 15 16 16 16 16 15 15 14 14 14
16 17 17 17 17 17 17 17 18 18 18 18 18 18 19 19 19 19 19 19 19 19 19 19 18 18 18 18 18 18 17 17 17 17 17 17 17 16 16 16 16 16 16 15 15 15 15 15 15 15 15 15 15 15 16 16 16 16 16 15 15 14 14
16 17 17 17 17 17 17 18 18 18 18 18 18 18 19 19 19 19 19 19 19 19 19 19 19 18 18 18 18 18 18 18 18 17 17 17 17 17 17 17 16 16 16 16 16 16 15 15 15 15 15 15 15 15 15 16 16 16 16 15 15 14 14
16 17 17 17 17 17 18 18 18 18 18 18 18 18 18 19 19 19 19 19 19 19 19 19 19 19 18 18 18 18 18 18 18 18 17 17 17 17 17 17 17 17 16 16 16 16 16 15 15 15 15 15 15 15 15 15 15 16 16 16 15 15 14
16 17 17 17 17 17 18 18 18 18 18 18 18 18 19 19 19 19 19 19 19 19 19 19 19 19 18 18 18 18 18 18 18 18 18 18 18 18 17 17 17 17 17 17 17 16 16 16 16 16 15 16 16 16 16 16 15 16 16 16 15 15 14
16 17 17 17 17 17 17 18 17 18 18 18 18 18 19 19 19 19 19 19 19 19 19 19 19 19 18 18 18 18 18 18 18 18 18 18 18 18 18 18 18 17 17 17 17 17 16 16 16 16 16 16 16 16 16 16 16 16 16 16 16 15 15
16 16 17 17 17 17 17 18 17 17 18 18 18 18 19 19 19 19 19 19 19 19 19 19 19 19 19 19 19 19 19 19 19 19 18 18 18 18 18 18 18 18 18 17 17 17 17 16 16 16 16 16 16 16 16 16 16 16 16 16 16 15 15
16 16 17 17 17 17 17 18 18 17 18 18 18 18 18 19 19 19 19 19 19 19 19 19 19 19 19 19 19 19 19 19 19 19 19 18 18 18 18 18 18 18 18 17 17 17 17 17 16 16 16 16 16 17 17 17 16 16 16 16 16 15 15
16 16 16 17 17 17 17 17 18 17 17 18 18 18 18 18 19 19 19 19 19 19 19 19 19 19 19 19 19 19 19 19 19 19 19 19 18 18 18 18 18 18 18 18 17 17 17 17 17 16 16 16 17 17 17 17 17 16 16 17 16 15 14
16 16 16 16 17 17 17 17 17 17 17 17 18 18 18 18 18 18 18 18 18 19 19 19 19 19 19 19 19 19 19 19 19 19 19 19 18 18 18 18 18 18 18 18 17 17 17 17 17 17 17 17 17 17 17 17 17 16 16 17 16 15 15
16 16 16 16 16 16 17 17 17 17 17 17 17 17 18 18 18 18 18 18 18 18 18 18 19 19 19 19 19 18 18 18 18 18 18 18 18 18 18 18 18 18 18 18 18 17 17 17 17 17 17 17 17 17 16 16 16 16 17 17 16 16 16
15 15 15 15 15 16 16 16 16 16 17 17 17 17 17 17 17 17 17 17 18 18 18 18 18 18 18 18 18 18 18 18 18 18 18 18 18 18 18 18 17 18 18 17 17 17 17 17 17 17 16 16 16 16 16 16 16 17 17 17 17 17 16
15 15 15 15 15 15 15 15 16 16 16 17 17 17 17 17 17 17 17 17 17 18 18 18 18 18 18 18 18 18 18 18 18 18 17 17 17 17 17 17 17 17 17 17 17 17 17 17 17 17 16 16 16 16 16 16 16 16 16 17 17 17 16
13 14 14 14 14 14 14 15 15 16 16 16 16 17 17 17 17 17 17 17 17 17 17 17 17 17 18 18 18 18 18 18 18 17 17 17 17 17 17 17 17 17 17 17 17 17 17 17 17 17 16 16 16 16 16 16 16 16 16 16 16 16 16
12 13 13 13 13 14 14 14 15 15 15 15 16 16 16 17 17 17 17 17 17 17 17 17 17 17 17 17 17 17 17 17 17 17 17 17 17 17 17 17 17 17 17 17 17 17 17 17 17 16 16 16 16 16 16 16 16 16 16 16 16 16 16
12 12 13 13 13 14 14 14 14 15 15 15 15 15 16 16 16 16 16 16 16 16 16 16 16 16 16 16 17 17 17 17 17 17 17 17 17 17 17 17 17 17 17 17 17 17 17 17 17 17 16 15 15 15 15 16 16 16 16 16 16 16 16
12 12 13 13 13 13 14 14 14 14 14 15 15 15 15 15 15 15 15 16 16 16 16 16 16 16 16 16 16 16 16 16 16 16 16 17 17 17 17 17 17 17 17 17 17 17 17 17 17 17 16 16 15 15 15 15 15 15 15 15 15 15 15
Height
3136 3138 3139 3141 3142 3144 3145 3147 3148 3150 3152 3154 3156 3158 3159 3160 3162 3164 3166 3168 3171 3173 3175 3177 3180 3182 3184 3186 3188 3191 3192 3194 3196 3198 3200 3202 3203 3204 3206 3207 3207 3208 3209 3210 3211 3212 3212 3213 3214 3215 3216 3216 3217 3218 3219 3220 3221 3222 3223 3224 3224 3224 3224
3134 3135 3137 3139 3140 3141 3143 3144 3146 3147 3149 3151 3153 3156 3157 3158 3159 3161 3163 3166 3168 3171 3173 3175 3177 3179 3182 3184 3186 3188 3190 3192 3194 3196 3197 3199 3201 3202 3204 3205 3205 3207 3208 3209 3209 3210 3211 3211 3212 3213 3214 3215 3215 3216 3217 3218 3219 3220 3221 3222 3223 3223 3223
3131 3132 3134 3136 3137 3139 3141 3142 3143 3144 3146 3148 3150 3153 3154 3155 3157 3159 3161 3163 3166 3168 3170 3173 3175 3177 3180 3182 3184 3186 3188 3190 3191 3193 3195 3197 3199 3200 3201 3202 3203 3204 3206 3207 3207 3208 3209 3209 3210 3211 3212 3213 3213 3214 3215 3216 3217 3218 3219 3221 3221 3222 3222
3128 3130 3132 3134 3135 3137 3138 3140 3141 3142 3143 3145 3147 3149 3151 3153 3155 3157 3159 3161 3164 3166 3168 3170 3173 3175 3177 3179 3181 3183 3185 3187 3189 3191 3193 3194 3196 3197 3198 3200 3201 3202 3203 3204 3205 3206 3206 3207 3208 3209 3209 3210 3211 3212 3213 3214 3215 3216 3217 3219 3220 3220 3221
3124 3127 3129 3131 3133 3134 3136 3138 3139 3140 3141 3142 3144 3146 3148 3151 3153 3155 3157 3159 3161 3163 3165 3168 3170 3173 3175 3177 3179 3180 3182 3184 3186 3188 3190 3191 3193 3194 3196 3197 3199 3200 3201 3202 3203 3203 3204 3205 3206 3207 3207 3208 3209 3210 3211 3211 3212 3214 3215 3216 3217 3218 3219
3121 3124 3126 3128 3130 3132 3133 3135 3136 3138 3139 3140 3142 3143 3145 3148 3150 3152 3154 3156 3159 3161 3163 3165 3167 3169 3171 3173 3175 3177 3179 3181 3183 3185 3187 3188 3190 3191 3193 3195 3196 3197 3198 3199 3200 3201 3202 3203 3203 3204 3205 3206 3206 3207 3208 3209 3210 3211 3212 3214 3215 3216 3217
3118 3121 3123 3126 3128 3129 3131 3132 3134 3136 3137 3138 3139 3140 3143 3145 3147 3149 3151 3153 3156 3158 3160 3162 3164 3166 3168 3170 3172 3174 3176 3178 3180 3182 3184 3185 3187 3188 3190 3192 3193 3195 3196 3196 3197 3198 3199 3200 3201 3201 3202 3203 3204 3204 3205 3207 3208 3209 3210 3211 3213 3214 3215
3116 3118 3121 3123 3125 3127 3128 3129 3131 3133 3134 3136 3137 3138 3139 3141 3143 3146 3148 3150 3153 3154 3156 3159 3161 3163 3165 3167 3169 3171 3173 3175 3177 3179 3181 3182 3184 3185 3187 3189 3190 3192 3192 3193 3195 3196 3197 3197 3198 3199 3199 3200 3200 3201 3202 3203 3205 3206 3207 3209 3210 3211 3213
3113 3115 3117 3120 3121 3123 3125 3126 3128 3130 3132 3133 3134 3135 3136 3138 3140 3142 3144 3147 3149 3151 3153 3155 3158 3160 3162 3164 3166 3168 3170 3172 3174 3176 3177 3179 3180 3182 3184 3185 3187 3188 3189 3190 3192 3193 3193 3194 3195 3196 3196 3197 3197 3198 3199 3200 3202 3203 3204 3206 3207 3209 3210
3110 3112 3114 3116 3117 3119 3121 3123 3125 3127 3129 3130 3132 3133 3133 3135 3136 3138 3141 3143 3145 3147 3150 3152 3154 3156 3158 3161 3163 3165 3167 3169 3171 3172 3174 3175 3176 3178 3180 3182 3183 3185 3186 3187 3188 3189 3190 3191 3192 3192 3193 3194 3194 3195 3196 3197 3198 3200 3201 3203 3205 3206 3207
3108 3110 3111 3113 3114 3116 3118 3119 3122 3124 3126 3127 3129 3130 3130 3131 3133 3135 3137 3139 3141 3143 3146 3148 3151 3152 3154 3157 3160 3162 3164 3166 3168 3169 3170 3172 3173 3175 3177 3178 3180 3181 3182 3184 3184 3185 3186 3187 3188 3189 3190 3191 3191 3192 3193 3194 3195 3196 3198 3200 3202 3203 3204
3106 3108 3109 3111 3112 3114 3115 3117 3119 3121 3123 3124 3126 3127 3127 3128 3129 3131 3132 3134 3137 3139 3142 3144 3147 3148 3151 3154 3156 3158 3160 3162 3164 3166 3168 3169 3170 3172 3173 3175 3176 3177 3178 3180 3181 3182 3182 3184 3185 3186 3187 3188 3189 3189 3191 3191 3192 3193 3195 3197 3198 3200 3201
3104 3106 3107 3109 3110 3112 3113 3115 3116 3118 3120 3122 3123 3123 3124 3125 3125 3127 3128 3130 3133 3135 3137 3140 3142 3144 3147 3150 3153 3155 3157 3159 3161 3163 3165 3167 3168 3169 3171 3172 3173 3174 3175 3177 3178 3178 3178 3180 3182 3183 3184 3185 3186 3187 3188 3188 3189 3190 3192 3193 3195 3196 3197
3101 3104 3105 3107 3108 3109 3111 3112 3114 3115 3117 3119 3120 3121 3121 3122 3122 3123 3125 3127 3129 3130 3132 3135 3137 3140 3143 3146 3148 3151 3153 3156 3158 3160 3162 3164 3165 3167 3168 3169 3170 3171 3172 3173 3174 3175 3175 3176 3178 3180 3181 3181 3182 3183 3184 3185 3185 3186 3188 3190 3191 3193 3194
3099 3101 3103 3104 3105 3106 3108 3110 3111 3113 3114 3116 3117 3118 3119 3119 3120 3121 3122 3123 3125 3126 3128 3130 3133 3136 3139 3142 3144 3147 3150 3152 3155 3157 3159 3160 3162 3163 3164 3165 3167 3168 3169 3169 3170 3172 3172 3173 3175 3176 3177 3178 3179 3180 3180 3181 3182 3183 3184 3186 3188 3189 3190
3096 3098 3100 3102 3102 3103 3105 3107 3109 3110 3112 3113 3115 3116 3117 3117 3117 3118 3119 3120 3121 3123 3125 3127 3129 3132 3135 3138 3141 3144 3146 3149 3151 3153 3155 3157 3158 3159 3161 3162 3163 3165 3165 3166 3167 3168 3169 3170 3171 3172 3173 3174 3175 3176 3176 3177 3178 3179 3181 3183 3185 3186 3187
3093 3095 3097 3100 3100 3101 3102 3103 3105 3107 3109 3110 3112 3113 3114 3115 3115 3116 3117 3118 3119 3120 3122 3124 3126 3129 3132 3135 3138 3140 3143 3145 3148 3150 3151 3153 3154 3155 3157 3159 3160 3161 3162 3163 3164 3165 3166 3167 3168 3168 3169 3170 3171 3171 3172 3173 3174 3176 3178 3180 3181 3183 3184
3091 3092 3094 3097 3098 3099 3100 3101 3102 3104 3106 3107 3108 3110 3111 3112 3113 3113 3114 3115 3117 3118 3119 3121 3123 3126 3129 3132 3134 3137 3139 3142 3144 3146 3148 3149 3151 3152 3154 3155 3156 3157 3158 3160 3161 3162 3163 3164 3164 3165 3166 3166 3167 3167 3168 3169 3171 3172 3174 3176 3178 3179 3180
3088 3089 3091 3093 3094 3096 3097 3098 3099 3101 3102 3104 3105 3106 3108 3109 3110 3111 3112 3113 3113 3115 3116 3118 3121 3124 3126 3128 3130 3133 3136 3139 3141 3143 3145 3146 3147 3149 3150 3152 3153 3154 3155 3156 3157 3159 3160 3160 3161 3162 3162 3162 3163 3163 3164 3165 3167 3169 3170 3172 3174 3176 3177
3085 3086 3088 3089 3091 3092 3093 3095 3096 3097 3099 3101 3102 3103 3104 3106 3107 3109 3109 3109 3110 3112 3114 3116 3119 3121 3123 3125 3128 3130 3133 3135 3137 3140 3141 3142 3144 3145 3147 3149 3150 3151 3152 3153 3154 3155 3156 3157 3157 3158 3158 3159 3159 3160 3161 3161 3163 3164 3166 3168 3170 3172 3173
3083 3084 3085 3086 3087 3089 3090 3092 3093 3094 3095 3097 3098 3100 3101 3103 3104 3105 3106 3106 3108 3109 3111 3114 3116 3118 3121 3123 3125 3127 3129 3132 3134 3136 3137 3139 3140 3142 3144 3146 3147 3148 3149 3149 3150 3150 3152 3153 3153 3154 3154 3155 3155 3156 3156 3157 3159 3160 3162 3164 3166 3168 3169
3080 3081 3082 3083 3084 3085 3087 3088 3090 3091 3092 3093 3095 3097 3098 3100 3101 3102 3103 3104 3105 3107 3109 3111 3113 3115 3118 3120 3122 3124 3126 3129 3131 3132 3134 3135 3137 3139 3141 3142 3144 3145 3145 3145 3146 3146 3147 3148 3149 3149 3150 3151 3151 3152 3152 3153 3155 3156 3158 3160 3163 3164 3164
3077 3078 3079 3080 3081 3082 3084 3085 3086 3088 3089 3090 3092 3093 3095 3096 3098 3099 3100 3101 3102 3104 3106 3108 3110 3112 3114 3117 3119 3121 3123 3125 3127 3129 3131 3132 3134 3135 3137 3139 3140 3141 3141 3142 3142 3143 3143 3144 3144 3145 3146 3147 3147 3148 3148 3149 3150 3152 3153 3156 3158 3159 3159
3074 3075 3076 3077 3078 3080 3081 3082 3083 3085 3086 3088 3089 3091 3092 3093 3095 3096 3097 3099 3100 3102 3103 3105 3107 3109 3111 3114 3116 3118 3120 3122 3124 3125 3127 3129 3130 3132 3134 3135 3136 3137 3137 3138 3138 3139 3139 3139 3139 3140 3141 3142 3143 3143 3144 3145 3146 3147 3149 3151 3153 3154 3155
3071 3072 3073 3074 3075 3077 3078 3079 3081 3082 3083 3084 3086 3088 3089 3090 3091 3093 3094 3096 3097 3099 3101 3103 3105 3106 3108 3110 3113 3115 3116 3118 3120 3121 3123 3125 3127 3128 3129 3130 3131 3132 3133 3133 3134 3134 3134 3134 3134 3135 3135 3136 3137 3138 3139 3140 3141 3142 3144 3146 3147 3149 3150
3068 3069 3070 3071 3072 3074 3075 3077 3078 3079 3080 3081 3083 3085 3086 3087 3089 3090 3091 3093 3094 3096 3098 3100 3101 3103 3104 3107 3109 3111 3113 3114 3116 3118 3119 3121 3122 3123 3124 3125 3126 3127 3128 3128 3129 3129 3129 3129 3129 3129 3130 3130 3131 3132 3134 3135 3136 3136 3138 3140 3141 3143 3144
3064 3066 3067 3068 3069 3071 3072 3073 3075 3076 3077 3078 3079 3081 3083 3084 3086 3087 3088 3089 3091 3093 3095 3096 3097 3099 3101 3103 3105 3107 3109 3111 3112 3113 3115 3116 3117 3118 3119 3120 3121 3121 3122 3123 3123 3123 3124 3124 3124 3125 3125 3125 3126 3127 3128 3130 3131 3131 3132 3134 3135 3136 3138
3061 3063 3064 3065 3066 3068 3069 3070 3072 3073 3074 3075 3076 3078 3079 3081 3083 3084 3085 3086 3088 3090 3091 3092 3094 3096 3098 3100 3101 3103 3105 3106 3108 3109 3110 3111 3112 3113 3114 3115 3116 3116 3117 3117 3117 3118 3118 3119 3119 3120 3120 3120 3120 3121 3123 3124 3125 3126 3127 3128 3129 3130 3131
3058 3059 3061 3062 3063 3065 3066 3068 3069 3070 3071 3072 3073 3074 3076 3077 3079 3080 3082 3083 3085 3087 3088 3089 3090 3092 3094 3096 3097 3099 3100 3102 3103 3104 3105 3106 3108 3109 3109 3110 3111 3112 3112 3112 3113 3113 3113 3114 3114 3115 3115 3115 3116 3116 3118 3119 3120 3120 3121 3122 3123 3124 3125
3054 3055 3057 3059 3060 3062 3063 3065 3066 3068 3069 3069 3070 3071 3072 3074 3076 3077 3078 3080 3082 3083 3085 3086 3087 3089 3090 3092 3093 3094 3095 3097 3098 3099 3100 3101 3103 3103 3105 3106 3106 3107 3107 3108 3108 3108 3108 3109 3110 3110 3110 3110 3111 3112 3113 3114 3114 3115 3116 3117 3117 3117 3118
3050 3051 3053 3055 3057 3059 3060 3062 3063 3065 3066 3066 3067 3068 3069 3070 3072 3074 3076 3077 3079 3080 3082 3083 3084 3086 3087 3088 3089 3090 3092 3093 3094 3095 3096 3097 3098 3099 3100 3101 3101 3102 3103 3103 3103 3103 3103 3104 3104 3104 3105 3106 3107 3108 3108 3108 3108 3109 3110 3111 3112 3112 3113
3046 3048 3049 3051 3053 3055 3057 3058 3060 3061 3063 3064 3065 3065 3066 3067 3069 3071 3072 3074 3075 3077 3078 3080 3081 3083 3084 3085 3086 3087 3088 3089 3090 3091 3092 3092 3093 3094 3095 3096 3097 3097 3098 3099 3099 3099 3100 3100 3100 3100 3100 3101 3102 3103 3103 3103 3103 3103 3104 3105 3105 3106 3107
3042 3044 3046 3048 3050 3052 3053 3055 3056 3058 3059 3061 3062 3063 3064 3065 3066 3068 3069 3071 3072 3074 3075 3076 3078 3079 3080 3081 3082 3083 3084 3085 3086 3087 3088 3088 3089 3090 3091 3092 3093 3093 3094 3095 3095 3096 3096 3096 3096 3095 3095 3096 3097 3097 3097 3097 3097 3097 3098 3099 3099 3100 3100
3038 3040 3042 3044 3046 3048 3050 3052 3053 3055 3056 3058 3059 3060 3061 3062 3064 3065 3066 3068 3069 3070 3071 3073 3074 3075 3076 3078 3079 3080 3081 3081 3082 3083 3084 3084 3085 3086 3087 3088 3088 3089 3090 3090 3091 3091 3091 3091 3091 3091 3091 3091 3092 3091 3091 3091 3091 3091 3091 3092 3093 3093 3093
3035 3037 3039 3041 3043 3045 3047 3049 3050 3051 3053 3054 3055 3057 3058 3059 3060 3062 3063 3064 3065 3067 3068 3069 3070 3071 3072 3074 3075 3076 3077 3078 3079 3079 3080 3081 3081 3082 3083 3083 3084 3085 3085 3086 3086 3086 3086 3086 3085 3085 3086 3085 3084 3084 3084 3084 3085 3086 3086 3085 3085 3085 3085
3033 3035 3036 3038 3040 3042 3044 3045 3047 3048 3050 3051 3052 3054 3055 3056 3057 3058 3059 3060 3062 3063 3064 3065 3066 3067 3068 3070 3071 3072 3073 3074 3075 3075 3076 3077 3077 3078 3078 3079 3079 3080 3080 3080 3080 3081 3081 3080 3079 3080 3079 3077 3077 3076 3076 3077 3079 3080 3079 3076 3075 3076 3076
3030 3032 3034 3035 3037 3039 3040 3042 3044 3045 3046 3048 3049 3050 3052 3053 3054 3055 3056 3057 3058 3060 3060 3061 3062 3063 3064 3066 3067 3067 3069 3070 3070 3071 3072 3072 3073 3073 3073 3074 3074 3074 3074 3075 3075 3075 3075 3074 3073 3073 3072 3070 3069 3069 3069 3069 3070 3071 3070 3068 3067 3067 3067
3028 3029 3031 3032 3034 3035 3037 3039 3040 3042 3044 3045 3046 3048 3049 3049 3051 3052 3053 3054 3055 3056 3057 3058 3059 3060 3061 3062 3062 3063 3064 3065 3066 3066 3067 3067 3068 3068 3068 3069 3069 3069 3069 3069 3069 3068 3068 3066 3065 3065 3064 3062 3062 3061 3061 3061 3062 3061 3060 3058 3058 3058 3058
Wind_Speed
20 16 13 12 13 17 23 27 27 28 28 30 29 26 24 25 27 28 29 30 32 33 34 34 33 32 32 32 31 31 30 29 27 26 24 23 22 21 19 18 18 17 17 15 14 12 11 13 17 19 20 20 20 19 20 22 24 24 22 20 18 16 15
24 19 15 14 14 15 19 24 27 28 28 29 30 29 28 26 26 27 28 29 31 32 33 33 33 32 31 31 31 31 30 29 28 27 26 25 23 22 21 20 20 19 18 18 17 15 14 15 17 20 22 22 22 21 22 24 26 26 24 22 20 19 17
26 21 17 16 15 14 16 20 24 27 29 29 29 30 31 30 27 25 24 25 28 31 33 33 33 32 31 30 31 31 30 29 29 28 27 25 24 23 23 22 21 21 20 20 19 18 17 16 17 20 22 24 24 24 24 25 27 27 26 24 22 21 20
24 22 19 17 16 15 15 16 19 23 27 29 29 29 31 31 29 26 23 21 24 28 31 33 33 33 32 31 31 30 30 30 29 28 27 26 25 25 25 24 23 23 22 21 21 20 19 18 18 19 22 24 26 26 26 27 28 29 28 26 25 23 22
23 23 21 19 17 16 17 16 16 18 22 26 28 29 31 32 31 29 26 23 22 23 27 30 31 32 33 32 32 31 30 30 29 28 27 27 27 27 27 26 25 25 25 23 23 22 21 19 19 19 21 23 26 27 27 28 29 30 30 29 27 25 24
23 23 22 20 18 17 16 15 14 14 17 22 26 29 31 32 32 31 29 27 24 22 24 27 29 30 32 33 33 32 32 31 30 29 29 28 28 28 28 28 27 27 27 26 25 24 23 21 20 20 21 22 25 26 28 29 30 31 32 31 29 27 26
21 23 22 20 18 17 15 13 11 10 13 18 23 28 31 32 33 32 31 30 28 26 25 24 25 27 29 31 32 32 32 31 31 30 30 29 30 30 29 29 29 29 29 29 27 26 25 23 22 22 21 22 24 26 27 29 31 32 33 33 31 29 27
17 21 22 21 20 19 16 14 12 10 10 13 18 24 28 32 34 34 34 32 31 30 28 25 24 24 25 26 28 29 29 30 31 31 31 31 31 31 30 30 30 30 30 30 29 27 26 25 24 24 23 23 24 25 27 28 31 33 35 34 33 30 29
16 19 20 21 22 22 21 18 16 14 13 12 13 17 22 28 33 35 35 35 33 33 31 28 27 25 24 24 24 24 26 28 30 30 31 32 32 32 31 31 31 31 31 31 30 29 29 27 26 26 25 25 25 25 26 28 31 34 36 35 34 32 31
18 18 18 19 22 24 24 23 20 18 17 15 14 16 19 24 29 32 35 36 36 35 33 32 30 28 28 27 25 24 25 26 27 28 30 31 32 33 32 32 32 32 32 32 32 32 31 30 29 28 27 27 27 27 27 28 30 34 36 36 35 34 33
19 18 16 18 20 23 25 25 24 21 18 16 16 17 20 23 27 30 33 36 37 37 36 35 33 32 30 29 28 29 28 27 27 27 27 29 31 33 33 33 33 33 33 33 33 34 33 32 31 30 29 29 29 28 28 28 30 33 36 37 37 36 34
15 15 14 14 16 18 20 21 21 19 16 14 14 16 20 25 27 29 32 35 38 39 39 38 37 35 33 31 31 31 31 29 29 28 27 27 28 30 32 33 34 34 33 33 34 35 34 33 32 31 31 30 30 30 29 29 30 32 36 37 38 37 36
10 13 13 13 13 14 15 16 17 17 15 13 13 14 17 23 28 30 32 34 37 40 42 41 40 38 36 34 33 33 32 31 30 29 28 28 28 28 29 30 32 33 33 33 34 35 35 33 32 32 32 31 31 31 31 30 31 32 36 38 38 39 38
7 11 12 11 11 12 14 15 16 17 17 16 16 15 15 20 26 29 31 33 36 40 43 43 42 41 38 37 35 34 33 32 31 30 29 29 30 29 28 28 29 30 30 31 32 34 34 33 31 32 33 33 33 32 32 32 32 33 35 38 39 40 40
8 8 8 8 8 8 10 13 14 17 19 20 20 17 16 18 23 24 27 31 35 39 42 43 43 42 40 38 37 36 34 34 33 32 31 31 31 31 30 30 29 28 28 29 29 29 30 30 30 30 33 34 34 34 34 35 34 34 35 38 39 40 40
8 7 8 9 9 7 7 9 11 14 18 21 21 19 17 18 21 22 23 27 32 36 39 42 42 42 41 39 38 37 36 35 35 34 33 33 33 33 32 32 31 29 29 28 27 27 28 28 28 29 31 34 35 35 36 37 36 34 34 37 39 40 40
9 10 11 11 12 10 8 9 10 11 13 16 20 21 19 18 20 23 24 24 27 30 35 39 40 41 41 40 39 38 37 36 36 35 35 35 35 35 34 34 33 32 31 29 28 28 28 28 28 29 30 33 35 37 37 38 37 35 34 36 39 40 41
15 14 15 17 16 13 11 11 12 12 11 12 15 19 21 20 20 24 26 24 24 27 32 35 37 38 38 39 39 39 38 37 37 36 36 35 36 36 35 35 35 34 33 32 30 29 29 29 29 30 31 33 35 36 38 39 38 36 35 36 38 40 41
20 19 20 22 20 16 14 14 14 14 14 13 13 16 19 21 21 23 26 27 26 27 29 31 33 35 36 37 38 38 38 38 37 36 36 36 36 36 36 35 35 35 35 34 33 32 31 32 31 31 32 33 35 36 37 38 39 38 37 36 38 40 41
21 22 22 23 22 19 17 16 16 17 17 16 16 16 17 19 19 20 25 30 30 28 27 28 29 31 33 34 36 37 37 38 37 36 36 36 36 36 36 35 35 35 35 36 36 35 34 34 34 33 33 34 35 35 36 37 39 39 38 37 37 39 42
20 20 20 20 20 19 19 19 19 19 20 20 19 18 17 17 18 18 22 29 32 30 28 28 28 29 30 31 33 35 36 36 36 36 36 36 36 36 35 34 34 34 35 36 37 37 36 36 35 35 35 36 37 36 36 36 38 39 40 38 37 39 43
19 19 19 19 19 19 19 20 21 22 22 22 22 20 18 17 18 19 19 24 31 33 30 30 30 30 30 31 32 33 35 35 35 36 36 36 36 35 35 34 33 34 35 36 37 38 38 38 37 37 37 37 38 39 38 37 38 39 40 39 38 40 43
21 20 19 19 19 19 19 20 21 23 24 24 23 22 20 18 19 20 19 21 28 33 33 31 32 32 32 32 33 33 34 34 34 35 36 36 35 35 34 33 33 33 34 35 37 38 38 39 40 40 39 38 38 39 40 39 39 39 40 40 40 41 44
22 20 20 20 19 18 18 18 20 23 26 26 25 23 22 21 20 21 21 20 24 31 35 33 32 33 34 33 34 33 33 34 34 35 35 35 35 34 34 33 33 33 33 34 35 37 38 39 41 41 40 39 38 39 40 41 41 40 40 41 42 42 44
21 20 20 20 19 18 17 17 18 22 26 28 27 25 23 22 22 24 25 23 23 28 34 34 32 33 35 34 33 33 33 33 34 34 34 34 34 34 33 33 32 32 32 33 35 37 38 40 42 42 42 41 39 38 39 41 42 42 42 42 43 44 45
20 20 19 20 19 18 18 17 17 20 24 27 28 27 25 23 24 26 28 27 24 26 32 35 35 35 35 34 33 32 32 33 33 34 34 34 34 35 34 34 32 31 31 32 35 37 39 40 42 43 43 41 39 37 36 38 41 43 43 43 45 46 47
21 20 18 19 20 19 19 18 16 17 20 24 27 29 28 25 24 26 28 28 25 25 29 36 38 37 35 34 33 33 33 34 35 36 36 36 36 36 36 37 37 35 33 32 34 37 39 40 42 42 42 42 40 37 34 34 36 40 42 43 45 48 49
23 21 19 19 20 20 20 19 18 17 18 21 25 27 28 27 25 24 25 25 24 25 28 32 36 37 36 34 34 34 34 35 36 37 37 38 38 38 39 39 39 38 37 36 36 37 38 39 41 41 41 41 40 38 35 33 34 36 37 40 45 48 50
25 24 22 20 20 21 21 20 19 18 18 19 22 24 25 26 25 23 23 22 23 26 29 30 32 34 35 34 35 35 35 35 36 37 38 38 38 39 40 39 38 38 38 37 37 37 38 39 40 41 41 41 39 38 37 35 35 34 34 35 41 47 50
28 27 25 22 20 20 20 21 21 20 19 19 20 21 22 23 23 23 23 22 22 25 28 29 31 32 33 34 35 36 36 36 37 38 38 38 39 39 39 39 40 40 40 39 38 38 39 40 40 40 40 40 39 38 38 37 38 37 35 34 37 44 49
30 29 27 24 22 20 20 20 20 21 21 20 19 20 20 21 22 22 22 22 23 25 26 28 29 29 28 28 28 29 31 32 33 35 37 38 39 39 39 40 41 42 42 41 40 39 39 40 40 40 40 39 39 38 38 39 40 40 39 38 38 41 46
29 29 28 25 23 22 21 21 20 21 21 21 20 19 19 20 21 21 22 23 25 26 27 27 27 25 24 24 24 25 26 26 27 29 32 34 35 36 37 39 41 42 42 42 41 41 40 40 41 41 41 41 40 39 39 40 41 41 41 41 42 43 43
29 29 27 25 24 24 23 23 22 21 21 21 21 20 19 20 20 20 23 25 25 27 28 28 27 26 25 25 25 25 26 26 27 28 29 30 32 33 36 38 39 40 40 41 40 40 39 39 40 41 42 42 42 41 41 42 43 44 45 45 47 47 45
28 28 26 26 26 26 25 24 24 23 22 22 22 21 21 21 21 21 23 25 25 25 26 26 26 26 26 25 26 26 27 28 29 29 30 31 31 33 35 37 38 39 39 38 38 38 39 40 41 43 43 44 43 43 43 45 47 48 48 48 49 49 49
28 28 27 27 27 27 27 26 26 25 25 25 24 24 24 24 24 24 24 25 25 25 24 24 24 24 25 25 26 28 29 29 30 30 31 31 32 32 34 35 37 38 39 39 40 41 42 44 45 46 47 48 48 49 49 50 51 51 51 51 52 51 51
29 30 30 30 30 30 29 29 28 28 28 27 27 27 26 26 26 26 25 26 26 26 25 25 24 24 24 25 27 29 30 30 31 31 31 31 31 32 33 35 36 38 40 42 44 45 47 47 47 47 48 49 51 52 52 53 53 53 53 55 56 57 56
32 32 32 32 32 31 31 30 30 29 29 29 28 28 28 28 28 28 27 26 26 26 26 25 25 25 25 25 27 29 30 30 31 32 32 32 33 34 35 36 38 40 42 44 46 48 50 52 52 52 51 51 51 52 54 55 55 56 56 58 59 60 60
34 33 33 33 33 32 32 31 30 30 30 29 29 29 28 28 27 27 26 25 24 24 25 25 25 25 26 26 27 28 29 31 32 33 34 36 37 38 39 41 42 44 46 48 49 51 53 55 57 58 58 58 56 56 57 58 58 58 59 61 62 62 61
Wind_Direction
238 238 227 222 219 221 226 229 231 231 230 230 227 223 220 219 220 221 222 221 220 219 219 219 220 219 218 217 215 213 213 215 217 220 221 222 225 227 228 230 233 236 239 242 242 238 231 225 223 220 219 221 224 225 221 216 214 214 214 213 213 211 208
238 235 228 227 223 221 223 224 226 228 230 231 229 226 224 222 221 221 222 221 220 220 220 220 221 221 221 219 218 216 216 217 219 221 223 224 225 227 228 230 234 236 238 240 243 242 237 231 227 225 223 223 225 226 223 218 215 215 215 215 217 217 214
237 233 228 227 225 224 225 223 224 227 228 230 229 227 227 226 225 225 225 223 221 221 221 221 222 222 222 221 220 219 218 219 221 223 225 226 227 228 229 230 233 236 237 238 241 243 241 237 233 229 227 225 226 226 225 221 217 216 216 216 219 222 221
234 231 228 229 229 230 229 224 224 226 228 230 229 227 227 229 229 228 227 226 223 222 222 223 223 223 224 224 223 222 222 222 224 225 226 227 227 228 230 230 232 236 239 240 241 243 244 243 240 236 232 229 228 228 225 222 219 218 217 216 219 224 226
231 230 230 231 230 231 228 224 224 227 229 231 230 228 227 228 229 229 229 228 225 224 224 224 224 224 225 226 226 226 226 226 227 227 227 227 228 229 230 231 233 236 239 241 242 243 245 245 244 243 239 235 233 232 229 224 221 220 219 218 220 224 228
232 229 230 230 229 228 227 226 229 230 231 230 229 228 227 226 228 229 229 229 228 225 223 223 223 223 224 226 227 227 228 228 228 227 227 228 230 231 232 233 234 236 239 241 242 243 244 245 244 244 244 241 238 236 234 229 224 222 221 220 221 223 228
235 230 228 229 229 229 228 231 232 227 224 224 225 226 226 225 227 227 227 228 228 227 226 225 223 222 222 223 224 226 226 227 228 228 229 230 232 234 235 236 236 236 239 242 243 243 243 245 245 245 245 244 242 239 237 233 228 224 223 222 222 223 227
236 234 232 232 233 233 234 237 236 229 220 220 224 225 224 224 225 225 225 226 226 227 229 230 227 223 221 219 221 223 224 226 228 230 231 233 235 237 238 238 239 239 240 242 244 244 244 246 247 247 245 245 245 242 239 236 230 226 224 223 223 224 226
228 230 230 230 233 236 238 237 237 242 249 247 234 224 222 223 224 224 224 224 225 227 229 231 230 228 225 222 221 221 223 226 228 231 233 235 237 239 239 240 241 241 242 244 245 245 246 248 249 249 247 245 246 244 241 238 232 227 225 224 224 225 227
211 216 222 226 229 230 233 235 237 247 258 256 238 222 217 219 222 224 224 223 225 227 228 229 229 229 228 227 225 225 225 226 229 232 234 236 238 240 240 241 242 243 243 244 246 247 248 248 249 250 249 246 246 245 243 240 234 228 226 225 225 226 228
209 216 226 232 233 230 232 237 241 246 251 247 236 228 220 216 218 222 223 223 224 225 226 227 228 229 229 228 229 230 230 229 230 232 233 235 238 240 241 241 242 244 244 244 247 248 249 249 248 249 249 248 247 247 245 243 238 231 227 226 226 227 229
215 225 231 233 235 236 237 241 243 243 242 236 230 230 225 217 213 218 221 221 222 223 223 224 225 228 227 226 228 230 231 232 231 232 234 235 237 239 240 240 242 243 244 244 246 249 250 249 248 248 249 249 249 248 247 245 241 234 229 227 227 227 229
218 221 225 229 233 238 240 240 238 235 234 234 234 234 230 220 212 214 219 220 220 220 221 222 223 225 226 224 225 227 229 230 231 232 234 235 237 238 239 240 240 242 244 244 245 248 250 250 248 247 248 249 248 248 247 245 243 237 231 228 228 228 229
205 211 216 225 231 235 238 238 237 236 237 242 244 246 243 227 215 215 220 220 218 218 219 220 222 223 225 224 223 223 225 227 230 231 232 235 237 238 239 240 240 241 243 244 244 246 249 251 250 248 247 248 247 248 248 246 244 240 233 229 229 229 230
171 197 212 210 207 213 229 238 241 242 243 245 247 250 252 238 222 221 227 225 220 218 218 219 221 222 224 225 224 223 223 224 226 228 229 232 235 237 238 239 239 241 243 244 244 245 248 250 250 247 245 245 245 246 246 246 245 242 236 231 229 231 232
182 211 230 218 201 194 211 229 235 239 244 249 249 248 253 248 232 228 233 230 224 222 219 219 220 221 222 225 225 224 224 223 224 226 227 229 232 235 236 237 239 241 243 245 246 247 248 250 249 247 244 244 244 244 244 245 246 245 240 234 231 232 234
228 241 246 232 218 210 212 221 224 226 234 245 248 247 249 251 240 231 231 231 229 227 223 221 221 220 221 224 225 225 225 224 224 226 228 229 231 233 234 236 238 240 242 245 247 248 249 250 249 248 246 245 245 244 244 245 246 246 243 237 233 232 235
246 254 254 241 231 226 225 232 235 229 226 231 237 242 246 250 245 235 231 234 234 229 225 223 223 222 221 222 224 225 226 225 224 226 229 231 232 233 234 235 237 240 243 244 246 248 249 250 250 249 248 248 248 247 245 245 246 246 244 240 235 234 235
240 244 246 242 241 238 235 240 242 235 233 232 225 228 237 243 244 238 233 232 229 225 225 226 226 224 222 222 224 225 226 225 225 227 231 233 234 234 234 234 236 240 244 246 247 247 249 250 250 249 249 249 250 250 248 247 246 246 245 242 238 235 235
240 239 241 244 246 244 240 241 242 237 235 235 228 223 227 233 237 239 236 231 225 224 227 228 227 227 226 226 226 226 225 225 227 229 231 233 234 235 235 235 237 240 243 245 247 248 249 249 249 249 249 250 252 252 251 250 248 247 245 243 240 236 236
245 243 243 243 244 245 243 240 240 239 236 233 231 227 224 227 231 237 240 235 229 226 225 224 225 228 229 228 228 228 227 227 228 229 231 233 235 236 237 236 237 240 242 245 247 249 250 250 251 251 250 250 251 253 253 252 250 248 247 244 241 237 237
249 244 240 241 243 245 245 243 241 240 237 234 231 228 226 228 231 234 241 239 232 227 224 221 221 223 225 226 227 229 230 230 230 230 232 234 236 237 237 236 237 240 243 245 247 249 251 252 252 252 251 251 251 252 254 254 251 250 249 246 242 238 237
248 245 241 243 246 244 242 244 243 241 238 234 231 230 229 231 234 236 240 241 235 229 226 223 220 220 222 225 226 230 232 233 233 233 234 235 237 238 238 238 238 240 242 245 247 250 253 254 254 254 255 255 254 253 254 255 253 251 250 247 243 239 237
246 248 248 247 247 245 241 243 245 243 239 234 233 234 232 233 237 239 242 244 238 231 228 226 223 221 222 225 227 231 234 235 236 237 236 236 237 238 239 238 238 239 241 244 246 248 250 252 253 255 256 258 257 255 253 254 255 254 251 248 245 241 239
244 247 251 250 247 243 240 241 244 245 242 237 236 237 235 235 238 241 243 246 243 234 229 227 226 223 222 224 227 229 232 235 236 236 236 237 238 239 238 238 238 240 242 245 246 247 246 247 250 253 255 257 258 256 253 252 253 253 252 249 246 243 241
240 243 247 248 244 239 237 235 236 240 241 239 238 238 237 237 238 240 243 246 245 238 231 227 225 224 222 222 224 227 230 233 235 235 236 237 238 238 238 237 238 240 243 247 249 248 247 247 249 252 254 256 257 256 254 251 250 251 252 250 247 245 242
237 238 240 241 239 234 232 231 231 236 237 236 237 238 238 238 238 240 243 246 245 241 234 227 225 224 223 223 225 228 232 234 236 238 238 238 237 237 239 240 241 242 244 248 250 250 249 248 249 250 251 253 254 255 253 250 249 249 252 252 249 245 243
236 235 236 237 235 231 229 231 234 238 237 234 233 235 238 240 240 242 245 246 242 237 233 227 224 224 224 225 228 231 234 236 238 240 241 240 239 239 241 243 245 246 246 247 247 248 247 246 246 247 248 250 253 254 253 251 249 249 251 254 252 248 245
239 237 235 234 231 229 229 230 235 239 241 238 233 232 234 238 241 242 245 245 239 234 232 229 225 225 227 228 231 233 235 238 240 241 242 242 242 242 243 245 246 245 245 246 246 246 245 244 244 246 247 249 252 255 256 254 253 253 254 255 254 250 247
239 239 238 235 232 230 227 229 233 237 241 242 239 235 233 234 238 242 245 245 241 236 235 233 232 233 235 236 237 238 239 241 243 242 242 243 244 245 246 247 245 242 243 246 247 247 246 246 246 247 249 251 254 257 258 258 258 258 257 257 255 251 248
238 240 241 238 235 234 231 229 230 235 242 246 245 242 238 236 238 243 243 241 237 233 231 232 233 234 236 238 239 240 242 243 244 245 245 246 247 248 249 248 244 241 243 246 249 249 249 248 248 249 252 254 256 258 259 259 260 260 259 259 259 257 255
237 239 241 240 238 237 236 233 232 235 241 245 247 247 245 242 242 242 238 233 230 229 229 230 231 233 235 238 241 244 246 248 248 249 250 250 251 251 249 247 243 242 244 247 249 251 250 249 249 251 252 254 255 257 258 259 262 263 262 261 261 263 263
237 236 238 240 238 236 237 236 235 235 237 240 244 247 248 246 244 241 236 231 228 228 230 231 233 235 239 242 245 248 251 254 255 254 253 252 251 249 246 243 243 244 247 249 251 254 255 255 255 255 255 256 256 256 257 259 261 262 262 262 264 266 266
235 233 233 235 235 235 235 235 236 237 236 236 237 242 246 247 245 241 237 234 232 231 231 232 234 237 240 243 246 249 252 255 257 257 255 252 250 248 245 244 245 247 250 253 256 260 263 264 265 264 263 262 260 258 258 259 260 262 263 264 265 266 266
229 229 229 229 230 231 231 232 234 236 236 234 233 236 240 243 244 243 240 238 238 238 238 237 238 240 242 245 247 250 253 255 256 256 255 253 252 251 249 249 250 252 255 257 260 264 267 270 271 271 270 269 266 263 261 262 263 264 265 265 265 264 262
223 224 225 225 226 226 226 228 229 231 233 233 233 233 235 238 241 243 242 242 242 243 244 244 244 245 245 247 248 250 252 254 256 256 256 257 257 257 256 255 255 256 258 261 263 266 268 271 272 273 273 271 270 269 268 267 266 266 265 265 264 264 262
218 220 221 222 223 223 223 223 225 226 227 229 231 232 233 235 237 239 240 241 242 243 244 245 245 246 247 248 250 251 253 255 258 259 261 262 263 264 264 263 262 262 263 264 265 267 268 269 270 271 270 270 270 270 270 270 269 268 267 265 265 265 264
213 215 217 219 220 220 220 220 220 221 223 225 228 230 232 233 235 236 238 239 240 242 243 244 245 246 248 250 252 254 256 258 260 263 264 266 267 269 269 269 269 269 268 268 268 268 268 268 268 268 268 268 269 270 270 270 270 270 269 268 267 265 265